Hourly Data Report for February 01, 2013

BAGOTVILLE A
QUEBEC

48°20'00.000" N
71°00'00.000" W
159.10 m
7060400
71727
YBG

Download Data

Hourly Data (February 2013)
Hourly Data Report for February 1, 2013
TIME
LST
Temp Definition
°C
Dew Point Definition
°C
Rel Hum Definition
%
Precip. Amount Definition
mm

Wind Dir Definition
10's deg

Wind Spd Definition
km/h
Visibility Definition
km
Stn Press Definition
kPa
Hmdx Definition


Wind Chill Definition


Weather Definition


00:00 -13.8 -19.3 63   29 52 12.9 96.99   -27 Snow Showers
01:00 -13.8 -19.3 63   27 28 16.1 97.10   -24 Snow Showers
02:00 -15.4 -20.9 63   29 44 16.1 97.30   -28 Snow Showers
03:00 -16.2 -19.9 73   29 48 16.1 97.45   -30 Snow Showers
04:00 -17.0 -20.9 72   29 46 8.0 97.60   -31 Snow Showers
05:00 -17.4 -20.7 75   30 37 6.4 97.73   -30 Snow Showers,Blowing Snow
06:00 -17.6 -20.9 75   29 46 4.8 97.88   -32 Snow Showers,Blowing Snow
07:00 -18.0 -21.4 75   29 39 4.8 98.02   -31 Snow Showers,Blowing Snow
08:00 -18.3 -22.5 70   31 37 6.4 98.20   -31 Snow Showers,Blowing Snow
09:00 -18.4 -22.6 70   30 32 4.0 98.36   -31 Snow Showers,Blowing Snow
10:00 -18.5 -23.6 64   30 35 3.2 98.48   -31 Snow Showers,Blowing Snow
11:00 -18.6 -24.6 59   30 30 6.4 98.59   -31 Snow Showers
12:00 -18.4 -22.6 70   31 30 9.7 98.67   -30 Snow Showers
13:00 -18.2 -23.2 65   30 33 16.1 98.75   -31 Snow Showers
14:00 -18.3 -23.3 65   31 30 32.2 98.86   -30 Cloudy
15:00 -18.4 -22.6 70   32 26 40.2 98.97   -30 Cloudy
16:00 -18.9 -22.5 73   32 24 32.2 99.09   -30 Cloudy
17:00 -20.1 -23.9 72   31 19 40.2 99.18   -30 Mostly Cloudy
18:00 -20.8 -24.8 70   30 22 40.2 99.29   -32 Mostly Cloudy
19:00 -21.4 -25.5 69   30 19 40.2 99.42   -32 Mostly Cloudy
20:00 -21.8 -26.0 69   30 24 40.2 99.53   -34 Mostly Cloudy
21:00 -22.3 -27.7 61   32 20 40.2 99.62   -33 Mostly Cloudy
22:00 -22.8 -27.3 67   31 19 40.2 99.70   -34 Mostly Cloudy
23:00 -23.6 -28.3 65   31 26 16.1 99.78   -36 Snow Showers

Notes on Data Quality.

Legend

  • E = Estimated
  • M = Missing
  • NA = Not Available*
  • [empty] = Indicates an unobserved value
Date modified: